Terminal Aerodrome Forecast
Issued by NWS

Home | Current Version | Previous Version | Graphics & Text | Print | Product List | Glossary On
Versions: 1 2 3 4 5 6 7 8 9 10 11 12 13 14 15 16 17 18 19 20 21 22 23 24 25
000
FTUS43 KGRB 190200 AAA
TAFCWA
TAF AMD
KCWA 190211Z 1902/1924 13008KT P6SM VCSH SCT010 OVC025
      TEMPO 1903/1907 2SM TSRA BR BKN007CB
     FM190700 VRB03KT 4SM BR VCTS BKN014CB
      TEMPO 1907/1910 2SM SHRA OVC007
     FM191300 24005KT 5SM BR SCT025 BKN040 PROB30 1913/1918 3SM
      -SHRA OVC025
     FM191800 29006KT 4SM BR VCSH BKN040
      TEMPO 1920/1924 1SM +TSRA BR OVC022CB
      AMD LTD TO CLD VIS AND WIND 1903/1911=

USA.gov is the U.S. government's official web portal to all federal, state and local government web resources and services.